SCP
0 0 0 0 0 0 -0 -0 -0 -0 -0 -0 -0 0 -0 -0 -0 -0 0 -0 0 0 -0 0 0 0 0 0 0 -0 -0 -0 -0 -0 -0 -0 -0 -0 -0 -0 -0 -0 -0 -0 -0 -0 -0 -0 -0
0 0 0 0 0 -0 -0 -0 -0 -0 -0 -0 -0 0 0 -0 -0 -0 0 0 0 0 0 0 0 0 0 0 0 0 -0 -0 -0 -0 -0 -0 -0 -0 -0 -0 -0 -0 -0 -0 -0 -0 -0 -0 -0
0 0 0 0 0 -0 -0 -0 0 0 -0 0 0 0 0 -0 -0 0 -0 -0 -0 -0 0 0 0 0 0 0 0 0 -0 -0 -0 -0 -0 -0 -0 -0 -0 -0 -0 -0 -0 -0 -0 -0 -0 -0 -0
0 0 0 0 0 0 0 0 0 0 0 0 0 -0 -0 0 -0 -0 -0 -0 0 0 0 0 0 0 -0 0 0 0 -0 -0 -0 -0 -0 -0 -0 -0 -0 -0 -0 -0 -0 -0 -0 -0 -0 -0 -0
0 0 0 0 0 0 0 0 0 0 0 0 0 -0 -0 -0 -0 -0 -0 -0 -0 0 -0 0 0 0 0 -0 -0 -0 -0 -0 -0 -0 -0 -0 -0 -0 -0 -0 -0 -0 -0 -0 -0 -0 -0 -0 -0
0 0 0 0 0 0 0 0 0 0 0 0 0 0 0 -0 -0 -0 -0 -0 -0 -0 0 -0 0 0 0 -0 -0 -0 -0 -0 -0 -0 -0 -0 -0 -0 -0 -0 -0 -0 -0 -0 -0 -0 -0 -0 -0
0 0 0 0 0 0 0 0 0 0 0 0 0 0 0 -0 -0 -0 -0 -0 -0 -0 -0 -0 -0 0 0 0 -0 -0 -0 -0 -0 -0 -0 -0 -0 -0 -0 -0 -0 -0 -0 -0 -0 -0 -0 -0 -0
0 0 0 0 0 0 0 0 0 0 0 0 0 0 -0 -0 -0 -0 -0 -0 -0 -0 -0 -0 -0 -0 -0 -0 -0 -0 -0 -0 -0 -0 -0 -0 -0 -0 -0 -0 -0 -0 -0 -0 -0 0 0 0 0
0 0 0 0 0 0 0 0 0 0 0 0 0 0 0 -0 -0 -0 -0 -0 -0 -0 -0 -0 -0 -0 -0 -0 -0 -0 -0 -0 -0 -0 -0 -0 0 -0 -0 -0 0 -0 -0 -0 0 0 0 0 0
0 0 0 0 0 0 0 0 0 0 0 0 0 0 0 -0 -0 -0 -0 -0 -0 -0 -0 -0 -0 -0 -0 0 -0 -0 -0 -0 -0 -0 -0 0 0 0 0 0 0 0 -0 -0 0 0 0 -0 0
0 0 0 0 0 0 0 0 0 0 0 0 0 0 -0 -0 -0 -0 -0 -0 -0 -0 -0 -0 -0 -0 -0 -0 -0 0 0 0 0 -0 0 0 0 0 0 0 0 0 0 0 0 0 0 0 0
0 0 0 0 0 0 0 0 0 0 0 0 0 0 -0 -0 -0 -0 -0 -0 -0 -0 -0 -0 -0 0 -0 -0 -0 -0 0 0 0 -0 0 0 0 0 0 0 0 0 0 0 0 0 0 0 0
0 0 0 0 0 0 0 0 0 0 0 0 0 0 0 -0 -0 0 0 0 -0 -0 -0 -0 -0 -0 0 -0 -0 -0 -0 0 0 0 -0 0 0 0 0 0 0 0 0 0 0 0 0 0 0
0 0 0 0 0 0 0 0 0 0 0 0 0 0 0 -0 -0 0 0 0 0 -0 -0 -0 -0 -0 -0 -0 -0 -0 -0 -0 -0 0 0 0 0 0 0 0 0 0 0 0 0 0 0 0 0
0 0 0 0 0 0 0 0 0 0 0 0 0 0 0 0 0 0 0 0 0 0 -0 -0 -0 -0 -0 -0 -0 0 0 -0 -0 0 0 0 0 0 0 0 0 0 0 0 0 0 0 0 0
0 0 0 0 0 0 0 0 0 0 0 0 0 0 0 0 0 0 0 0 0 0 0 0 0 0 -0 0 0 0 0 0 0 0 0 0 0 0 0 0 0 0 0 0 0 0 0 0 0
0 0 0 0 0 0 0 0 0 0 0 0 0 0 0 0 0 0 0 0 0 0 0 0 0 0 0 0 0 0 0 0 0 0 0 0 0 0 0 0 0 0 0 0 0 0 0 0 0
0 0 0 0 0 0 0 0 0 0 0 0 0 0 0 0 0 0 0 0 0 0 0 0 0 0 0 0 0 0 0 0 0 0 0 0 0 0 0 0 0 0 0 0 0 0 0 0 0
0 0 0 0 0 0 0 0 0 0 0 0 0 0 0 0 0 0 0 0 0 0 0 0 0 0 0 0 0 0 0 0 0 0 0 0 0 0 0 0 0 0 0 0 0 0 0 0 0
0 0 0 0 0 0 0 0 0 0 0 0 0 0 0 0 0 0 0 0 0 0 0 0 0 0 0 0 0 0 0 0 0 0 0 0 0 0 0 0 0 0 0 0 0 0 0 0 0
0 0 0 0 0 0 0 0 0 0 0 0 0 0 0 0 0 0 0 0 0 0 0 0 0 0 0 0 0 0 0 0 0 0 0 0 0 0 0 0 0 0 0 0 0 0 0 0 0
0 0 0 0 0 0 0 0 0 0 0 0 0 0 0 0 0 0 0 0 0 0 0 0 0 0 0 0 0 0 0 0 0 0 0 0 0 0 0 0 0 0 0 0 0 0 0 0 0
0 0 0 0 0 0 0 0 0 0 0 0 0 0 0 0 0 0 0 0 0 0 0 0 0 0 0 0 0 0 0 0 0 0 0 0 0 0 0 0 0 0 0 0 0 0 0 0 0
0 0 0 0 0 0 0 0 0 0 0 0 0 0 0 0 0 0 0 0 0 0 0 0 0 0 0 0 0 0 0 0 0 0 0 0 0 0 0 0 0 0 0 0 0 0 0 0 0
0 0 0 0 0 0 0 0 0 0 0 0 0 0 0 0 0 0 0 0 0 0 0 0 0 0 0 0 0 0 0 0 0 0 0 0 0 0 0 0 0 0 0 0 0 0 0 0 0
0 0 0 0 0 0 0 0 0 0 0 0 0 0 0 0 0 0 0 0 0 0 0 0 0 0 0 0 0 0 0 0 0 0 0 0 0 0 0 0 0 0 0 0 0 0 0 0 0
0 0 0 0 0 0 0 0 0 0 0 0 0 0 0 0 0 0 0 0 0 0 0 0 0 0 0 0 0 0 0 0 0 0 0 0 0 0 0 0 0 0 0 0 0 0 0 0 0
0 0 0 0 0 0 0 0 0 0 0 0 0 0 0 0 0 0 0 0 0 0 0 0 0 0 0 0 0 0 0 0 0 0 0 0 0 0 0 0 0 0 0 0 0 0 0 0 0
0 0 0 0 0 0 0 0 0 0 0 0 0 0 0 0 0 0 0 0 0 0 0 0 0 0 0 0 0 0 0 0 0 0 0 0 0 0 0 0 0 0 0 0 0 0 0 0 0
0 0 0 0 0 0 0 0 0 0 0 0 0 0 0 0 0 0 0 0 0 0 0 0 0 0 0 0 0 0 0 0 0 0 0 0 0 0 0 0 0 0 0 0 0 0 0 0 0
Wind_Speed_500mb
12 5 5 9 11 9 8 10 9 14 16 5 17 1 11 12 14 8 25 23 35 33 28 26 20 17 18 21 27 22 17 16 22 25 27 28 36 31 26 23 26 32 31 30 29 29 29 28 28
11 5 4 8 12 13 13 15 17 18 20 14 12 5 5 20 14 15 31 33 35 33 28 25 22 19 19 21 26 26 13 14 22 25 28 29 33 32 26 25 28 30 29 29 29 27 26 25 23
12 11 14 8 13 12 15 18 21 16 18 13 11 3 5 11 11 25 20 39 36 31 27 27 23 20 19 19 21 25 17 14 20 23 26 25 27 27 24 28 30 31 30 31 30 29 28 27 24
8 9 11 15 18 7 6 20 26 22 8 8 3 10 9 9 15 16 35 41 35 31 28 27 24 21 20 20 19 21 20 14 16 21 24 25 25 26 26 28 29 27 26 31 29 30 31 30 29
12 14 14 18 8 7 5 17 24 20 18 18 10 11 7 7 14 23 40 41 35 31 31 30 26 22 21 19 19 18 20 18 13 18 18 20 21 22 27 21 19 20 25 23 27 28 28 28 29
17 15 13 19 17 9 11 17 22 20 15 12 11 8 11 13 20 29 37 38 33 32 33 31 28 23 21 19 18 17 17 19 15 14 13 18 18 17 17 14 13 23 25 23 24 25 28 27 26
12 14 17 16 17 10 11 19 20 19 17 14 0 8 10 18 23 31 36 35 33 32 36 33 30 27 24 20 17 16 17 18 16 11 10 19 20 15 11 9 12 20 21 20 22 21 23 22 21
6 6 10 12 17 10 18 23 11 15 12 11 7 7 11 25 29 33 34 34 33 33 35 29 31 29 26 24 20 17 16 18 18 13 9 8 11 13 9 6 11 14 16 15 16 19 18 17 15
9 11 17 17 19 16 25 18 11 7 7 11 12 4 9 31 33 35 36 36 40 42 36 36 34 30 27 26 24 20 18 18 18 15 11 5 6 8 8 5 7 10 12 14 14 15 14 12 9
16 14 19 13 16 19 31 24 19 13 14 14 14 9 21 30 36 40 48 46 46 47 46 41 37 31 29 26 27 24 21 20 20 18 15 12 9 5 3 4 6 5 7 9 12 12 12 10 6
10 19 9 13 13 9 26 20 16 13 15 16 24 24 26 33 34 40 46 48 47 46 48 47 44 39 34 31 31 28 28 24 24 22 19 19 16 10 10 7 8 8 10 10 11 10 8 8 7
13 5 3 13 9 13 20 16 16 21 9 6 11 21 30 32 37 38 38 38 44 49 48 49 47 47 42 34 34 29 30 30 25 26 25 23 17 13 12 9 7 5 10 11 12 11 7 5 4
13 12 7 12 15 7 15 15 6 19 15 10 13 22 28 30 33 33 32 34 38 50 52 51 51 51 48 44 35 34 32 34 31 29 28 25 21 17 16 14 11 12 12 13 14 11 8 6 4
12 13 12 12 12 9 13 10 3 12 16 19 20 18 25 30 34 34 35 37 42 41 52 51 52 51 52 51 45 41 36 36 37 36 32 29 27 23 21 20 18 17 16 16 17 15 13 10 8
14 13 11 13 13 6 5 13 19 21 10 14 21 25 29 31 33 40 39 40 41 40 42 49 49 50 52 53 52 48 40 38 41 40 38 35 33 29 26 24 22 20 17 18 20 18 16 14 13
11 12 16 20 17 6 11 25 30 21 18 29 30 27 30 32 35 37 40 40 40 39 41 44 48 48 50 50 48 49 49 45 42 40 42 41 38 35 31 29 27 24 20 19 20 21 21 20 19
16 17 29 12 16 9 19 17 21 11 13 21 22 33 31 29 34 37 40 42 39 41 41 45 49 51 51 50 49 48 48 49 42 40 39 43 44 41 38 34 31 29 26 24 24 24 24 25 26
19 26 13 24 16 16 18 26 12 14 19 18 24 24 30 36 38 37 43 42 42 43 44 45 48 53 55 56 57 57 55 51 49 44 42 40 36 40 42 42 36 33 31 29 31 32 33 35 35
14 23 18 12 5 10 23 27 28 35 35 31 31 30 31 31 28 28 31 37 44 46 48 51 51 55 59 66 68 67 66 61 58 53 51 43 44 40 38 43 45 39 41 41 42 40 45 45 44
7 17 16 6 5 7 11 23 30 32 40 43 42 41 38 33 31 37 39 41 45 48 51 54 56 56 60 66 69 70 67 67 62 60 58 60 53 50 48 48 44 43 45 50 49 50 52 53 59
22 21 9 10 6 6 10 26 33 28 41 45 46 43 39 40 38 34 31 42 48 53 56 61 62 60 59 67 66 67 62 68 66 66 67 60 58 59 57 56 57 51 52 56 57 56 60 65 65
25 12 2 7 4 12 3 13 8 14 20 25 41 41 39 38 35 41 43 45 47 53 58 63 66 68 63 62 68 74 75 72 74 71 65 62 64 61 58 60 58 62 63 66 62 65 65 77 78
12 11 11 5 10 9 15 11 10 6 17 28 34 29 23 20 24 26 32 40 44 43 49 53 54 56 65 69 72 70 76 72 56 66 62 58 57 59 62 53 59 54 54 57 54 59 62 60 68
30 19 9 5 4 12 23 16 17 20 18 8 8 17 20 17 18 20 21 23 27 27 33 43 50 53 58 61 65 64 70 65 60 56 57 52 49 46 47 49 47 52 55 53 50 47 53 61 57
21 21 7 8 10 13 10 12 30 10 7 9 17 20 18 18 17 17 16 14 14 15 20 28 36 40 44 51 52 54 50 55 59 54 56 54 47 43 42 40 42 43 45 47 48 49 51 55 59
33 28 12 13 11 6 3 16 15 9 3 11 6 13 18 18 21 19 16 14 12 12 12 16 22 28 35 39 39 40 46 47 48 51 52 54 52 48 42 42 45 46 49 50 47 50 55 50 53
14 18 12 10 3 3 12 19 24 18 14 16 26 21 21 22 22 23 20 17 16 15 15 15 15 18 25 33 43 44 41 46 49 48 46 48 51 49 46 46 47 48 48 48 52 48 53 56 58
18 22 9 9 10 13 17 25 27 10 26 23 26 30 25 22 24 25 23 22 20 19 17 15 14 14 16 20 24 29 33 35 36 42 43 44 44 45 46 46 49 50 49 50 54 57 62 54 57
11 19 16 13 17 14 17 22 13 16 24 29 28 31 30 28 26 23 24 24 22 21 21 20 19 17 17 18 18 19 20 24 27 30 34 36 37 38 41 42 45 48 47 45 46 49 50 52 55
35 40 44 16 20 16 18 28 11 4 5 19 34 36 32 30 28 27 25 25 24 24 23 23 22 20 20 20 19 19 19 20 22 24 25 27 29 31 30 30 31 32 34 37 40 45 48 52 57
Wind_Direction_500mb
261 267 359 299 246 247 126 154 98 130 144 100 127 70 45 19 5 35 143 141 151 146 159 149 141 132 130 123 116 106 98 79 74 78 96 99 102 98 91 78 93 97 99 100 107 114 114 116 115
233 211 258 262 256 209 155 133 165 156 112 135 137 140 151 87 66 114 147 148 149 146 152 154 142 136 133 125 121 117 116 86 80 84 99 99 106 108 97 87 87 93 96 98 102 101 101 107 110
207 178 237 230 254 233 144 167 144 118 137 162 160 275 52 76 92 138 157 149 152 146 165 154 145 140 135 124 119 129 124 95 81 86 99 97 97 107 106 93 86 83 89 95 99 102 104 104 105
172 193 235 242 199 59 43 166 137 139 150 217 204 140 98 98 135 157 159 153 155 150 179 158 151 146 140 130 124 126 128 112 90 85 91 89 93 96 94 89 94 95 89 92 94 102 102 102 100
175 213 217 231 185 115 149 138 156 167 164 176 200 118 97 125 135 147 158 157 158 165 178 167 157 152 145 136 131 125 129 130 111 97 94 91 94 93 96 109 112 103 102 97 98 101 102 103 102
196 226 215 205 179 136 139 167 171 175 166 151 201 155 113 153 142 153 158 160 162 178 174 171 164 159 154 148 140 131 132 139 131 107 97 98 98 99 115 108 104 104 105 106 106 100 103 97 94
232 211 218 202 157 163 153 169 187 186 177 184 114 200 110 158 159 159 161 162 164 189 175 175 173 167 165 160 152 142 136 144 138 127 111 87 85 93 105 116 107 113 115 115 110 98 103 99 93
236 239 194 203 175 151 153 166 196 192 174 153 182 171 164 175 163 162 165 167 171 194 182 173 181 177 176 173 166 161 154 151 148 159 151 100 82 75 84 99 107 114 114 121 119 113 106 103 93
208 221 198 177 184 145 158 179 175 196 174 181 178 60 119 163 157 164 172 176 185 185 184 177 187 181 186 185 179 178 173 166 167 172 171 157 112 83 96 124 117 128 137 127 120 111 110 107 88
222 222 194 160 181 159 171 194 176 184 177 193 178 169 144 161 166 177 182 185 196 192 190 193 189 184 186 191 191 190 188 184 184 187 184 163 161 143 235 197 171 156 141 133 133 129 119 94 60
197 211 119 151 140 158 172 188 185 201 197 202 198 186 174 176 185 195 199 202 202 202 202 202 199 189 191 194 197 200 198 195 199 199 192 203 200 217 239 223 197 173 147 151 152 145 140 148 143
199 231 169 134 138 146 171 190 203 210 91 135 161 179 185 195 196 202 200 203 205 209 211 210 208 205 199 204 203 204 207 207 208 209 209 215 223 216 213 244 205 196 170 174 175 178 172 167 163
227 163 130 133 135 158 149 189 231 223 208 194 180 176 196 202 207 210 208 207 211 212 216 218 215 216 212 210 206 210 209 218 217 219 217 218 220 224 223 229 216 215 205 197 195 195 198 206 215
166 160 141 152 148 151 181 180 193 208 189 215 228 212 208 214 214 211 209 210 210 215 220 220 222 221 221 221 217 216 216 222 222 225 226 221 224 226 228 228 224 221 216 213 210 211 217 224 236
164 142 160 177 178 132 186 211 222 223 191 203 229 234 225 222 216 216 215 213 214 216 223 220 222 224 226 226 226 221 223 222 227 228 231 227 227 229 230 230 226 227 227 224 223 226 233 244 249
184 207 197 171 175 173 212 239 219 223 230 246 244 243 229 224 223 221 217 218 216 212 218 226 223 224 227 225 225 228 222 227 230 231 234 233 231 233 232 234 233 232 233 233 236 238 243 251 257
206 221 215 157 204 165 207 248 239 187 220 243 244 240 235 228 223 221 221 218 215 217 217 225 230 228 229 229 228 230 231 233 232 226 234 237 236 235 235 238 238 237 237 243 249 253 257 264 270
204 232 220 211 180 211 200 243 208 211 214 235 252 245 238 234 231 226 229 223 219 217 219 221 232 233 231 233 233 233 233 234 236 229 234 235 237 235 236 239 240 237 241 254 257 255 256 257 258
308 223 214 205 101 218 229 246 251 243 239 244 245 244 239 232 230 215 219 225 229 226 222 223 222 234 233 229 233 233 234 234 236 238 233 238 239 237 235 233 237 237 240 246 252 257 257 256 251
199 231 231 106 113 236 243 260 264 252 243 244 246 239 238 234 219 226 229 234 237 236 235 232 227 226 237 235 237 242 241 242 242 242 241 240 246 242 238 236 239 239 248 252 254 257 262 260 261
221 238 235 329 165 238 291 270 249 244 241 240 244 244 240 235 234 229 234 239 236 239 239 240 236 227 224 241 235 234 233 242 240 245 243 242 244 246 248 242 243 245 249 257 259 262 261 262 266
226 196 192 169 260 270 296 276 230 228 232 230 241 238 235 235 237 236 235 244 245 240 239 241 240 232 225 231 236 230 229 230 241 246 246 243 244 248 248 250 252 253 257 260 263 268 269 268 263
205 152 198 175 249 318 209 262 247 100 254 251 228 217 215 211 219 230 234 238 244 243 237 237 237 233 229 222 240 233 231 232 234 248 248 246 245 244 248 253 254 259 257 260 269 265 269 274 275
130 116 100 110 224 257 251 222 260 225 243 224 167 193 192 198 207 220 228 229 238 237 232 231 233 234 232 229 223 234 230 229 227 236 245 245 249 245 249 250 253 253 259 260 263 269 278 267 280
176 160 183 225 201 253 21 206 249 259 220 273 212 191 193 197 197 199 197 193 200 204 214 217 220 223 223 220 219 226 229 230 230 232 242 245 250 250 249 250 250 252 263 266 271 274 274 276 278
190 190 183 205 200 250 100 227 249 267 311 225 206 189 192 193 204 198 197 191 183 186 198 210 220 220 217 215 209 213 220 225 227 232 238 247 250 253 251 248 247 252 261 268 273 274 273 278 282
170 207 209 102 79 217 208 253 277 198 220 220 217 200 201 195 199 200 200 199 198 200 202 203 206 212 216 213 214 213 217 220 226 232 236 240 246 249 249 251 254 255 260 263 265 273 273 276 277
208 158 163 211 207 233 235 246 250 198 232 216 213 209 195 197 200 199 199 202 201 200 200 200 204 203 204 208 217 219 220 217 223 231 237 242 246 249 249 252 254 257 261 264 267 266 272 273 276
170 190 219 222 225 224 249 247 280 255 210 212 205 201 193 197 195 194 197 196 193 190 187 186 182 184 187 183 186 190 193 200 210 222 228 233 239 243 248 252 257 261 263 265 267 271 275 278 280
220 215 204 202 208 236 267 264 102 57 263 207 193 185 187 190 190 190 188 179 177 174 169 169 167 167 168 164 171 177 186 192 200 212 220 229 236 240 245 249 253 257 263 269 273 277 279 281 283
Wind_Speed_850mb
12 5 5 9 11 9 8 10 9 14 16 5 17 1 11 12 14 8 25 23 35 33 28 26 20 17 18 21 27 22 17 16 22 25 27 28 36 31 26 23 26 32 31 30 29 29 29 28 28
11 5 4 8 12 13 13 15 17 18 20 14 12 5 5 20 14 15 31 33 35 33 28 25 22 19 19 21 26 26 13 14 22 25 28 29 33 32 26 25 28 30 29 29 29 27 26 25 23
12 11 14 8 13 12 15 18 21 16 18 13 11 3 5 11 11 25 20 39 36 31 27 27 23 20 19 19 21 25 17 14 20 23 26 25 27 27 24 28 30 31 30 31 30 29 28 27 24
8 9 11 15 18 7 6 20 26 22 8 8 3 10 9 9 15 16 35 41 35 31 28 27 24 21 20 20 19 21 20 14 16 21 24 25 25 26 26 28 29 27 26 31 29 30 31 30 29
12 14 14 18 8 7 5 17 24 20 18 18 10 11 7 7 14 23 40 41 35 31 31 30 26 22 21 19 19 18 20 18 13 18 18 20 21 22 27 21 19 20 25 23 27 28 28 28 29
17 15 13 19 17 9 11 17 22 20 15 12 11 8 11 13 20 29 37 38 33 32 33 31 28 23 21 19 18 17 17 19 15 14 13 18 18 17 17 14 13 23 25 23 24 25 28 27 26
12 14 17 16 17 10 11 19 20 19 17 14 0 8 10 18 23 31 36 35 33 32 36 33 30 27 24 20 17 16 17 18 16 11 10 19 20 15 11 9 12 20 21 20 22 21 23 22 21
6 6 10 12 17 10 18 23 11 15 12 11 7 7 11 25 29 33 34 34 33 33 35 29 31 29 26 24 20 17 16 18 18 13 9 8 11 13 9 6 11 14 16 15 16 19 18 17 15
9 11 17 17 19 16 25 18 11 7 7 11 12 4 9 31 33 35 36 36 40 42 36 36 34 30 27 26 24 20 18 18 18 15 11 5 6 8 8 5 7 10 12 14 14 15 14 12 9
16 14 19 13 16 19 31 24 19 13 14 14 14 9 21 30 36 40 48 46 46 47 46 41 37 31 29 26 27 24 21 20 20 18 15 12 9 5 3 4 6 5 7 9 12 12 12 10 6
10 19 9 13 13 9 26 20 16 13 15 16 24 24 26 33 34 40 46 48 47 46 48 47 44 39 34 31 31 28 28 24 24 22 19 19 16 10 10 7 8 8 10 10 11 10 8 8 7
13 5 3 13 9 13 20 16 16 21 9 6 11 21 30 32 37 38 38 38 44 49 48 49 47 47 42 34 34 29 30 30 25 26 25 23 17 13 12 9 7 5 10 11 12 11 7 5 4
13 12 7 12 15 7 15 15 6 19 15 10 13 22 28 30 33 33 32 34 38 50 52 51 51 51 48 44 35 34 32 34 31 29 28 25 21 17 16 14 11 12 12 13 14 11 8 6 4
12 13 12 12 12 9 13 10 3 12 16 19 20 18 25 30 34 34 35 37 42 41 52 51 52 51 52 51 45 41 36 36 37 36 32 29 27 23 21 20 18 17 16 16 17 15 13 10 8
14 13 11 13 13 6 5 13 19 21 10 14 21 25 29 31 33 40 39 40 41 40 42 49 49 50 52 53 52 48 40 38 41 40 38 35 33 29 26 24 22 20 17 18 20 18 16 14 13
11 12 16 20 17 6 11 25 30 21 18 29 30 27 30 32 35 37 40 40 40 39 41 44 48 48 50 50 48 49 49 45 42 40 42 41 38 35 31 29 27 24 20 19 20 21 21 20 19
16 17 29 12 16 9 19 17 21 11 13 21 22 33 31 29 34 37 40 42 39 41 41 45 49 51 51 50 49 48 48 49 42 40 39 43 44 41 38 34 31 29 26 24 24 24 24 25 26
19 26 13 24 16 16 18 26 12 14 19 18 24 24 30 36 38 37 43 42 42 43 44 45 48 53 55 56 57 57 55 51 49 44 42 40 36 40 42 42 36 33 31 29 31 32 33 35 35
14 23 18 12 5 10 23 27 28 35 35 31 31 30 31 31 28 28 31 37 44 46 48 51 51 55 59 66 68 67 66 61 58 53 51 43 44 40 38 43 45 39 41 41 42 40 45 45 44
7 17 16 6 5 7 11 23 30 32 40 43 42 41 38 33 31 37 39 41 45 48 51 54 56 56 60 66 69 70 67 67 62 60 58 60 53 50 48 48 44 43 45 50 49 50 52 53 59
22 21 9 10 6 6 10 26 33 28 41 45 46 43 39 40 38 34 31 42 48 53 56 61 62 60 59 67 66 67 62 68 66 66 67 60 58 59 57 56 57 51 52 56 57 56 60 65 65
25 12 2 7 4 12 3 13 8 14 20 25 41 41 39 38 35 41 43 45 47 53 58 63 66 68 63 62 68 74 75 72 74 71 65 62 64 61 58 60 58 62 63 66 62 65 65 77 78
12 11 11 5 10 9 15 11 10 6 17 28 34 29 23 20 24 26 32 40 44 43 49 53 54 56 65 69 72 70 76 72 56 66 62 58 57 59 62 53 59 54 54 57 54 59 62 60 68
30 19 9 5 4 12 23 16 17 20 18 8 8 17 20 17 18 20 21 23 27 27 33 43 50 53 58 61 65 64 70 65 60 56 57 52 49 46 47 49 47 52 55 53 50 47 53 61 57
21 21 7 8 10 13 10 12 30 10 7 9 17 20 18 18 17 17 16 14 14 15 20 28 36 40 44 51 52 54 50 55 59 54 56 54 47 43 42 40 42 43 45 47 48 49 51 55 59
33 28 12 13 11 6 3 16 15 9 3 11 6 13 18 18 21 19 16 14 12 12 12 16 22 28 35 39 39 40 46 47 48 51 52 54 52 48 42 42 45 46 49 50 47 50 55 50 53
14 18 12 10 3 3 12 19 24 18 14 16 26 21 21 22 22 23 20 17 16 15 15 15 15 18 25 33 43 44 41 46 49 48 46 48 51 49 46 46 47 48 48 48 52 48 53 56 58
18 22 9 9 10 13 17 25 27 10 26 23 26 30 25 22 24 25 23 22 20 19 17 15 14 14 16 20 24 29 33 35 36 42 43 44 44 45 46 46 49 50 49 50 54 57 62 54 57
11 19 16 13 17 14 17 22 13 16 24 29 28 31 30 28 26 23 24 24 22 21 21 20 19 17 17 18 18 19 20 24 27 30 34 36 37 38 41 42 45 48 47 45 46 49 50 52 55
35 40 44 16 20 16 18 28 11 4 5 19 34 36 32 30 28 27 25 25 24 24 23 23 22 20 20 20 19 19 19 20 22 24 25 27 29 31 30 30 31 32 34 37 40 45 48 52 57
Wind_Direction_850mb
261 267 359 299 246 247 126 154 98 130 144 100 127 70 45 19 5 35 143 141 151 146 159 149 141 132 130 123 116 106 98 79 74 78 96 99 102 98 91 78 93 97 99 100 107 114 114 116 115
233 211 258 262 256 209 155 133 165 156 112 135 137 140 151 87 66 114 147 148 149 146 152 154 142 136 133 125 121 117 116 86 80 84 99 99 106 108 97 87 87 93 96 98 102 101 101 107 110
207 178 237 230 254 233 144 167 144 118 137 162 160 275 52 76 92 138 157 149 152 146 165 154 145 140 135 124 119 129 124 95 81 86 99 97 97 107 106 93 86 83 89 95 99 102 104 104 105
172 193 235 242 199 59 43 166 137 139 150 217 204 140 98 98 135 157 159 153 155 150 179 158 151 146 140 130 124 126 128 112 90 85 91 89 93 96 94 89 94 95 89 92 94 102 102 102 100
175 213 217 231 185 115 149 138 156 167 164 176 200 118 97 125 135 147 158 157 158 165 178 167 157 152 145 136 131 125 129 130 111 97 94 91 94 93 96 109 112 103 102 97 98 101 102 103 102
196 226 215 205 179 136 139 167 171 175 166 151 201 155 113 153 142 153 158 160 162 178 174 171 164 159 154 148 140 131 132 139 131 107 97 98 98 99 115 108 104 104 105 106 106 100 103 97 94
232 211 218 202 157 163 153 169 187 186 177 184 114 200 110 158 159 159 161 162 164 189 175 175 173 167 165 160 152 142 136 144 138 127 111 87 85 93 105 116 107 113 115 115 110 98 103 99 93
236 239 194 203 175 151 153 166 196 192 174 153 182 171 164 175 163 162 165 167 171 194 182 173 181 177 176 173 166 161 154 151 148 159 151 100 82 75 84 99 107 114 114 121 119 113 106 103 93
208 221 198 177 184 145 158 179 175 196 174 181 178 60 119 163 157 164 172 176 185 185 184 177 187 181 186 185 179 178 173 166 167 172 171 157 112 83 96 124 117 128 137 127 120 111 110 107 88
222 222 194 160 181 159 171 194 176 184 177 193 178 169 144 161 166 177 182 185 196 192 190 193 189 184 186 191 191 190 188 184 184 187 184 163 161 143 235 197 171 156 141 133 133 129 119 94 60
197 211 119 151 140 158 172 188 185 201 197 202 198 186 174 176 185 195 199 202 202 202 202 202 199 189 191 194 197 200 198 195 199 199 192 203 200 217 239 223 197 173 147 151 152 145 140 148 143
199 231 169 134 138 146 171 190 203 210 91 135 161 179 185 195 196 202 200 203 205 209 211 210 208 205 199 204 203 204 207 207 208 209 209 215 223 216 213 244 205 196 170 174 175 178 172 167 163
227 163 130 133 135 158 149 189 231 223 208 194 180 176 196 202 207 210 208 207 211 212 216 218 215 216 212 210 206 210 209 218 217 219 217 218 220 224 223 229 216 215 205 197 195 195 198 206 215
166 160 141 152 148 151 181 180 193 208 189 215 228 212 208 214 214 211 209 210 210 215 220 220 222 221 221 221 217 216 216 222 222 225 226 221 224 226 228 228 224 221 216 213 210 211 217 224 236
164 142 160 177 178 132 186 211 222 223 191 203 229 234 225 222 216 216 215 213 214 216 223 220 222 224 226 226 226 221 223 222 227 228 231 227 227 229 230 230 226 227 227 224 223 226 233 244 249
184 207 197 171 175 173 212 239 219 223 230 246 244 243 229 224 223 221 217 218 216 212 218 226 223 224 227 225 225 228 222 227 230 231 234 233 231 233 232 234 233 232 233 233 236 238 243 251 257
206 221 215 157 204 165 207 248 239 187 220 243 244 240 235 228 223 221 221 218 215 217 217 225 230 228 229 229 228 230 231 233 232 226 234 237 236 235 235 238 238 237 237 243 249 253 257 264 270
204 232 220 211 180 211 200 243 208 211 214 235 252 245 238 234 231 226 229 223 219 217 219 221 232 233 231 233 233 233 233 234 236 229 234 235 237 235 236 239 240 237 241 254 257 255 256 257 258
308 223 214 205 101 218 229 246 251 243 239 244 245 244 239 232 230 215 219 225 229 226 222 223 222 234 233 229 233 233 234 234 236 238 233 238 239 237 235 233 237 237 240 246 252 257 257 256 251
199 231 231 106 113 236 243 260 264 252 243 244 246 239 238 234 219 226 229 234 237 236 235 232 227 226 237 235 237 242 241 242 242 242 241 240 246 242 238 236 239 239 248 252 254 257 262 260 261
221 238 235 329 165 238 291 270 249 244 241 240 244 244 240 235 234 229 234 239 236 239 239 240 236 227 224 241 235 234 233 242 240 245 243 242 244 246 248 242 243 245 249 257 259 262 261 262 266
226 196 192 169 260 270 296 276 230 228 232 230 241 238 235 235 237 236 235 244 245 240 239 241 240 232 225 231 236 230 229 230 241 246 246 243 244 248 248 250 252 253 257 260 263 268 269 268 263
205 152 198 175 249 318 209 262 247 100 254 251 228 217 215 211 219 230 234 238 244 243 237 237 237 233 229 222 240 233 231 232 234 248 248 246 245 244 248 253 254 259 257 260 269 265 269 274 275
130 116 100 110 224 257 251 222 260 225 243 224 167 193 192 198 207 220 228 229 238 237 232 231 233 234 232 229 223 234 230 229 227 236 245 245 249 245 249 250 253 253 259 260 263 269 278 267 280
176 160 183 225 201 253 21 206 249 259 220 273 212 191 193 197 197 199 197 193 200 204 214 217 220 223 223 220 219 226 229 230 230 232 242 245 250 250 249 250 250 252 263 266 271 274 274 276 278
190 190 183 205 200 250 100 227 249 267 311 225 206 189 192 193 204 198 197 191 183 186 198 210 220 220 217 215 209 213 220 225 227 232 238 247 250 253 251 248 247 252 261 268 273 274 273 278 282
170 207 209 102 79 217 208 253 277 198 220 220 217 200 201 195 199 200 200 199 198 200 202 203 206 212 216 213 214 213 217 220 226 232 236 240 246 249 249 251 254 255 260 263 265 273 273 276 277
208 158 163 211 207 233 235 246 250 198 232 216 213 209 195 197 200 199 199 202 201 200 200 200 204 203 204 208 217 219 220 217 223 231 237 242 246 249 249 252 254 257 261 264 267 266 272 273 276
170 190 219 222 225 224 249 247 280 255 210 212 205 201 193 197 195 194 197 196 193 190 187 186 182 184 187 183 186 190 193 200 210 222 228 233 239 243 248 252 257 261 263 265 267 271 275 278 280
220 215 204 202 208 236 267 264 102 57 263 207 193 185 187 190 190 190 188 179 177 174 169 169 167 167 168 164 171 177 186 192 200 212 220 229 236 240 245 249 253 257 263 269 273 277 279 281 283